Location: Newark
(39.0622°N, 106.5590°E)
Time: 01:11:03
(UTC+00:00)

Vanguard 2 Rocket - Pass Details

Date: 28 January 2020
Orbit: 553 x 3327 km, 32.9° (Epoch: 27 February)

Event Time Altitude Azimuth Distance (km) Brightness Sun altitude
Rises 02:45:07 0° 266° (W) 3,772 9.8 23.7°
Reaches altitude 10° 02:47:57 10° 252° (WSW) 3,138 9.6 24.1°
Maximum altitude 02:54:07 24° 201° (SSW) 2,888 10.1 24.8°
Drops below altitude 10° 03:03:13 10° 155° (SSE) 4,795 12.4 25.7°
Sets 03:08:59 0° 144° (SE) 6,311 12.5 26.3°
